Stündliche Wetter Jüchen

Heute, 2 März, Dienstag

Zeit Temperatur Niederschläge Wind Luftdruck Luftfeuchtigkeit
00:00 +6°C° 0 mm 2 m/S 766 mmHg 75%
01:00 +6°C° 0 mm 2 m/S 766 mmHg 77%
02:00 +5°C° 0 mm 2 m/S 766 mmHg 78%
03:00 +5°C° 0 mm 2 m/S 766 mmHg 80%
04:00 +5°C° 0 mm 2 m/S 766 mmHg 81%
05:00 +5°C° 0 mm 2 m/S 766 mmHg 82%
06:00 +4°C° 0 mm 2 m/S 766 mmHg 83%
07:00 +5°C° 0 mm 3 m/S 766 mmHg 78%
08:00 +7°C° 0 mm 3 m/S 766 mmHg 73%
09:00 +7°C° 0 mm 4 m/S 766 mmHg 68%
10:00 +10°C° 0 mm 3 m/S 766 mmHg 63%
11:00 +11°C° 0 mm 3 m/S 766 mmHg 59%
12:00 +13°C° 0 mm 3 m/S 766 mmHg 54%
13:00 +14°C° 0 mm 2 m/S 765 mmHg 54%
14:00 +15°C° 0 mm 2 m/S 765 mmHg 53%
15:00 +15°C° 0 mm 2 m/S 765 mmHg 53%
16:00 +14°C° 0 mm 2 m/S 765 mmHg 58%
17:00 +12°C° 0 mm 2 m/S 765 mmHg 63%
18:00 +10°C° 0 mm 2 m/S 765 mmHg 69%
19:00 +9°C° 0 mm 2 m/S 765 mmHg 71%
20:00 +9°C° 0 mm 2 m/S 765 mmHg 73%
21:00 +8°C° 0 mm 2 m/S 765 mmHg 75%
22:00 +8°C° 0 mm 2 m/S 765 mmHg 77%
23:00 +8°C° 0 mm 2 m/S 765 mmHg 78%

Morgen, 3 März, Mittwoch

Zeit Temperatur Niederschläge Wind Luftdruck Luftfeuchtigkeit
00:00 +7°C° 0 mm 2 m/S 765 mmHg 80%
01:00 +7°C° 0 mm 2 m/S 765 mmHg 81%
02:00 +7°C° 0 mm 2 m/S 765 mmHg 82%
03:00 +6°C° 0 mm 2 m/S 764 mmHg 82%
04:00 +6°C° 0 mm 2 m/S 764 mmHg 83%
05:00 +6°C° 0 mm 2 m/S 764 mmHg 83%
06:00 +6°C° 0 mm 2 m/S 765 mmHg 83%
07:00 +8°C° 0 mm 1 m/S 764 mmHg 77%
08:00 +10°C° 0 mm 1 m/S 764 mmHg 72%
09:00 +11°C° 0 mm 1 m/S 764 mmHg 67%
10:00 +12°C° 0 mm 2 m/S 764 mmHg 63%
11:00 +14°C° 0 mm 2 m/S 764 mmHg 59%
12:00 +15°C° 0 mm 2 m/S 763 mmHg 55%
13:00 +15°C° 0 mm 2 m/S 763 mmHg 55%
14:00 +16°C° 0 mm 2 m/S 762 mmHg 56%
15:00 +16°C° 0 mm 2 m/S 762 mmHg 56%
16:00 +15°C° 0 mm 2 m/S 762 mmHg 62%
17:00 +13°C° 0 mm 1 m/S 761 mmHg 67%
18:00 +12°C° 0 mm 1 m/S 761 mmHg 72%
19:00 +12°C° 0 mm 1 m/S 761 mmHg 75%
20:00 +11°C° 0 mm 1 m/S 761 mmHg 77%
21:00 +11°C° 0 mm 1 m/S 761 mmHg 79%
22:00 +10°C° 0 mm 1 m/S 760 mmHg 81%
23:00 +10°C° 0 mm 1 m/S 760 mmHg 83%

übermorgen, 4 März, Donnerstag

Zeit Temperatur Niederschläge Wind Luftdruck Luftfeuchtigkeit
00:00 +10°C° 0 mm 1 m/S 760 mmHg 85%
01:00 +9°C° 0 mm 1 m/S 759 mmHg 85%
02:00 +9°C° 0 mm 1 m/S 759 mmHg 86%
03:00 +9°C° 0 mm 1 m/S 758 mmHg 87%
04:00 +9°C° 0 mm 1 m/S 758 mmHg 88%
05:00 +9°C° 0 mm 1 m/S 758 mmHg 89%
06:00 +9°C° 0 mm 1 m/S 757 mmHg 90%
07:00 +9°C° 0.6 mm 1 m/S 757 mmHg 89%
08:00 +10°C° 0.6 mm 1 m/S 757 mmHg 89%
09:00 +10°C° 0.6 mm 1 m/S 757 mmHg 89%
10:00 +9°C° 0.3 mm 2 m/S 757 mmHg 87%
11:00 +9°C° 0.3 mm 2 m/S 756 mmHg 85%
12:00 +9°C° 0.3 mm 3 m/S 756 mmHg 83%
13:00 +8°C° 0.4 mm 3 m/S 756 mmHg 84%
14:00 +7°C° 0.4 mm 4 m/S 756 mmHg 85%
15:00 +6°C° 0.4 mm 4 m/S 755 mmHg 86%
16:00 +5°C° 0.2 mm 4 m/S 755 mmHg 85%
17:00 +5°C° 0.2 mm 4 m/S 756 mmHg 85%
18:00 +5°C° 0.2 mm 4 m/S 756 mmHg 84%
19:00 +4°C° 0 mm 4 m/S 756 mmHg 82%
20:00 +3°C° 0 mm 4 m/S 757 mmHg 80%
21:00 +3°C° 0 mm 4 m/S 757 mmHg 78%
22:00 +1°C° 0 mm 4 m/S 758 mmHg 78%
23:00 +1°C° 0 mm 4 m/S 758 mmHg 78%

5 März, Freitag

Zeit Temperatur Niederschläge Wind Luftdruck Luftfeuchtigkeit
00:00 +1°C° 0 mm 4 m/S 758 mmHg 78%
01:00 +1°C° 0 mm 4 m/S 759 mmHg 77%
02:00 +1°C° 0 mm 4 m/S 759 mmHg 76%
03:00 0°C° 0 mm 4 m/S 759 mmHg 75%
04:00 0°C° 0 mm 4 m/S 760 mmHg 75%
05:00 -1°C° 0 mm 4 m/S 760 mmHg 76%
06:00 -1°C° 0 mm 3 m/S 761 mmHg 76%
07:00 0°C° 0 mm 3 m/S 761 mmHg 72%
08:00 -1°C° 0 mm 4 m/S 762 mmHg 68%
09:00 0°C° 0 mm 4 m/S 762 mmHg 64%
10:00 +1°C° 0 mm 4 m/S 763 mmHg 58%
11:00 +3°C° 0 mm 4 m/S 763 mmHg 52%
12:00 +4°C° 0 mm 4 m/S 763 mmHg 45%
13:00 +4°C° 0 mm 3 m/S 763 mmHg 43%
14:00 +4°C° 0 mm 3 m/S 763 mmHg 41%
15:00 +4°C° 0 mm 3 m/S 763 mmHg 39%
16:00 +3°C° 0 mm 3 m/S 764 mmHg 44%
17:00 +3°C° 0 mm 2 m/S 764 mmHg 48%
18:00 +2°C° 0 mm 2 m/S 765 mmHg 53%
19:00 +2°C° 0 mm 2 m/S 765 mmHg 58%
20:00 +1°C° 0 mm 2 m/S 766 mmHg 62%
21:00 +1°C° 0 mm 2 m/S 767 mmHg 67%
22:00 +2°C° 0 mm 1 m/S 767 mmHg 70%
23:00 +1°C° 0 mm 1 m/S 767 mmHg 72%

6 März, Samstag

Zeit Temperatur Niederschläge Wind Luftdruck Luftfeuchtigkeit
00:00 +1°C° 0 mm 1 m/S 767 mmHg 74%
01:00 +1°C° 0 mm 1 m/S 767 mmHg 76%
02:00 +1°C° 0 mm 1 m/S 767 mmHg 77%
03:00 0°C° 0 mm 1 m/S 768 mmHg 79%
04:00 0°C° 0 mm 1 m/S 768 mmHg 80%
05:00 0°C° 0 mm 1 m/S 768 mmHg 81%
06:00 0°C° 0 mm 1 m/S 768 mmHg 82%
07:00 +1°C° 0 mm 1 m/S 769 mmHg 76%
08:00 +2°C° 0 mm 1 m/S 769 mmHg 70%
09:00 +3°C° 0 mm 1 m/S 769 mmHg 64%
10:00 +4°C° 0 mm 1 m/S 769 mmHg 58%
11:00 +4°C° 0 mm 2 m/S 769 mmHg 52%
12:00 +5°C° 0 mm 2 m/S 769 mmHg 46%
13:00 +5°C° 0 mm 2 m/S 769 mmHg 44%
14:00 +6°C° 0 mm 2 m/S 768 mmHg 42%
15:00 +6°C° 0 mm 2 m/S 768 mmHg 41%
16:00 +5°C° 0 mm 2 m/S 768 mmHg 46%
17:00 +4°C° 0 mm 2 m/S 768 mmHg 52%
18:00 +3°C° 0 mm 1 m/S 768 mmHg 57%
19:00 +3°C° 0 mm 1 m/S 768 mmHg 61%
20:00 +3°C° 0 mm 1 m/S 769 mmHg 65%
21:00 +2°C° 0 mm 1 m/S 769 mmHg 68%
22:00 +2°C° 0 mm 1 m/S 769 mmHg 69%
23:00 +1°C° 0 mm 0 m/S 769 mmHg 70%

7 März, Sonntag

Zeit Temperatur Niederschläge Wind Luftdruck Luftfeuchtigkeit
00:00 +1°C° 0 mm 0 m/S 769 mmHg 71%
01:00 0°C° 0 mm 0 m/S 768 mmHg 71%
02:00 0°C° 0 mm 0 m/S 768 mmHg 72%
03:00 0°C° 0 mm 0 m/S 768 mmHg 72%
04:00 0°C° 0 mm 0 m/S 768 mmHg 72%
05:00 +1°C° 0 mm 1 m/S 768 mmHg 73%
06:00 +1°C° 0 mm 1 m/S 767 mmHg 73%
07:00 +2°C° 0 mm 1 m/S 767 mmHg 69%
08:00 +3°C° 0 mm 1 m/S 767 mmHg 64%
09:00 +5°C° 0 mm 1 m/S 767 mmHg 60%
10:00 +5°C° 0 mm 2 m/S 766 mmHg 57%
11:00 +6°C° 0 mm 2 m/S 766 mmHg 54%
12:00 +7°C° 0 mm 2 m/S 766 mmHg 50%
13:00 +7°C° 0 mm 3 m/S 765 mmHg 51%
14:00 +7°C° 0 mm 3 m/S 764 mmHg 51%
15:00 +7°C° 0 mm 3 m/S 764 mmHg 52%
16:00 +5°C° 0 mm 3 m/S 763 mmHg 58%
17:00 +4°C° 0 mm 3 m/S 763 mmHg 65%
18:00 +4°C° 0 mm 2 m/S 763 mmHg 71%
19:00 +4°C° 0 mm 2 m/S 763 mmHg 73%
20:00 +4°C° 0 mm 2 m/S 763 mmHg 75%
21:00 +4°C° 0 mm 2 m/S 763 mmHg 78%
22:00 +4°C° 0 mm 2 m/S 763 mmHg 80%
23:00 +3°C° 0 mm 3 m/S 762 mmHg 82%
Mehr zeigen

Wir brauchen deine Erlaubnis

Meteoprog und unser Service Anbieter werden persönliche Daten aufbewahren, so wie Cookies, Geräte Bezeichnung oder ähnliche Technologien von deinem Gerät und Prozess, so wie Persönliche Daten Inhalte und Werbungen, genauso wie social Media und den Verkehr zu analysieren.

  • Aufbewahrung und/oder Zugang zu deiner Geräte Informationen.

    Cookies, Geräte Bezeichnung oder andere Informationen, können aufbewahrt oder Zugang zu deinem Gerät erhalten, für den Grund, der oben angegeben wird.

  • Personalisierte Werbung und Inhalte, Messungen, Einblick in das Publikum und Produkt Entwicklung.

    Werbungen und Inhalte können personalisiert werden, basierend auf ein Profil. Mehr Daten können besser personalisierte Werbungen und Inhalte hinzufügen. Werbung und Inhalte können gezeigt und gemessen werden. Einblicke über das Publikum, welche die Werbung gesehen haben und den Inhalt, können abgeleitet werden. So wie Daten können genutzt werden, um es zu verbessern oder die Benutzer Erfahrung zu verbessern das System und die Software.

Wenn du “Ich stimme zu” klickst, erlaubst du uns, die Cookies zu benutzen die Geräte Bezeichnung, den Web oder ähnliche Technologien zu benutzen. Deine Settings, können in deinem Gerät bei deinem Browser geändert werden.

Für den bestimmten Zweck, berechtigten Interessen beruhen darauf, mehr als auf den Inhalt. Du kannst mehr darüber in unseren Privaten und Cookie Politik lesen.